SM7GXQ Weather Reports


time (UTC)temp
C
wind
direction
speed
KPH
gust
KPH
rain 1hr
cm
rain 24hr
cm
rain mn
cm
humidity
%
barometer
mb
20260906053004 12 277 4.8 11.3 0.00 0.28 0.03 91 1012.0
20260906051504 12 287 6.4 12.9 0.00 0.28 0.03 91 1012.0
20260906050004 12 287 6.4 12.9 0.00 0.28 0.03 91 1012.0
20260906044504 12 289 6.4 9.7 0.00 0.28 0.03 91 1012.0
20260906043004 12 286 3.2 9.7 0.00 0.28 0.03 92 1012.0
20260906034504 12 310 4.8 14.5 0.00 0.28 0.03 92 1011.1
20260906033006 12 300 4.8 14.5 0.00 0.28 0.03 92 1010.9
20260906024504 12 306 4.8 16.1 0.03 0.28 0.03 91 1010.2
20260906023005 12 334 4.8 14.5 0.03 0.28 0.03 91 1009.1
20260906021504 12 318 4.8 11.3 0.03 0.28 0.03 91 1009.1
20260906013005 12 300 6.4 14.5 0.00 0.25 0.00 91 1009.1
20260906001504 12 315 4.8 12.9 0.00 0.28 0.00 91 1007.8
20260905234504 13 320 6.4 12.9 0.00 0.28 0.00 90 1006.5
20260905221504 13 284 9.7 19.3 0.00 0.28 0.00 90 1005.3
20260905220004 13 281 8.0 12.9 0.00 0.28 0.00 90 1005.3
20260905214504 13 260 4.8 12.9 0.00 0.28 0.28 90 1005.3
20260905210004 13 223 6.4 16.1 0.00 0.28 0.28 88 1005.0
20260905204504 14 254 4.8 12.9 0.00 0.28 0.28 88 1004.9
20260905200004 14 219 3.2 19.3 0.00 0.28 0.28 87 1004.6
20260905184504 14 264 9.7 19.3 0.05 0.28 0.28 87 1004.6
20260905183004 14 276 4.8 16.1 0.05 0.28 0.28 86 1004.3
20260905181504 14 262 4.8 16.1 0.10 0.30 0.28 87 1004.3
20260905174504 14 266 6.4 19.3 0.15 0.25 0.23 84 1004.3
20260905173005 15 284 11.3 22.5 0.13 0.23 0.23 83 1004.3
20260905170004 16 287 11.3 19.3 0.03 0.23 0.13 79 1003.9
20260905163004 17 284 14.5 19.3 0.00 0.30 0.10 74 1002.9
20260905160005 17 286 9.7 19.3 0.00 0.36 0.10 75 1002.5
20260905151504 18 285 11.3 25.7 0.00 0.43 0.10 70 1002.1
20260905150004 17 274 11.3 24.1 0.00 0.51 0.10 73 1002.1
20260905144504 17 289 11.3 20.9 0.00 0.51 0.10 75 1002.1
20260905143004 17 283 9.7 24.1 0.00 0.56 0.10 72 1002.1
20260905141504 18 284 16.1 27.4 0.00 0.61 0.10 75 1001.9
20260905140005 18 285 9.7 20.9 0.00 0.61 0.10 71 1001.9
20260905134504 18 289 4.8 19.3 0.00 0.64 0.10 72 1001.7
20260905131503 18 272 9.7 22.5 0.00 0.69 0.10 73 1001.5
20260905130004 18 286 11.3 25.7 0.00 0.71 0.10 72 1001.5
20260905123004 18 281 14.5 25.7 0.00 0.74 0.10 69 1001.4
20260905120004 18 255 8.0 22.5 0.00 0.74 0.10 74 1001.2
20260905113005 17 278 9.7 19.3 0.08 0.74 0.10 76 1001.3
20260905100004 16 256 8.0 19.3 0.00 0.66 0.03 81 1000.5
20260905084504 16 277 9.7 20.9 0.00 0.66 0.03 82 999.8
20260905080006 16 276 12.9 20.9 0.00 0.66 0.03 83 999.2
20260905070005 15 260 8.0 19.3 0.00 0.66 0.03 87 999.0
20260905060004 14 273 4.8 19.3 0.00 0.66 0.03 89 998.2
20260905054504 14 280 11.3 20.9 0.00 0.66 0.03 89 998.0